This demonstration page uses our WeatherBlox Daily Observations layout. Learn more.

Left ArrowRight Arrow

40.92945, -100.16068

Hourly Observations for February 8, 2021

Temp ( °F °C ) Dew Point ( °F °C ) Humidity (%) Winds ( mph kmh ) Pressure ( in mb ) Visibility ( mi km ) Precip ( " mm )
12:15 am 00:15 Cloudy 3 -16.2 -2 -19.1 79 79 NNE 3 6 30.38 1029 10 16 0.00 0.00
12:35 am 00:35 Mostly Cloudy 3 -16.3 -3 -19.3 78 78 NE 5 7 30.37 1028 10 16 0.00 0.00
12:55 am 00:55 Partly Cloudy 2 -16.5 -3 -19.4 78 78 NE 5 7 30.37 1029 10 16 0.00 0.00
1:15 am 01:15 Clear 2 -16.9 -3 -19.6 80 80 NNE 3 6 30.40 1029 10 16 0.00 0.00
1:35 am 01:35 Clear -2 -19.1 -7 -21.7 80 80 N 7 11 30.41 1030 10 16 0.00 0.00
1:55 am 01:55 Clear -2 -18.8 -5 -20.7 85 85 N 6 9 30.41 1030 10 16 0.00 0.00
2:15 am 02:15 Clear -4 -20.2 -8 -22.4 83 83 NNE 5 7 30.42 1030 10 16 0.00 0.00
2:35 am 02:35 Clear -6 -21 -9 -22.6 87 87 N 5 7 30.44 1031 10 16 0.00 0.00
2:55 am 02:55 Clear -11 -23.8 -15 -25.9 83 83 N 3 6 30.49 1032 10 16 0.00 0.00
3:15 am 03:15 Clear -12 -24.5 -16 -26.8 81 81 N 3 6 30.50 1033 10 16 0.00 0.00
3:35 am 03:35 Clear -12 -24.6 -16 -26.7 83 83 NNE 3 6 30.48 1032 10 16 0.00 0.00
3:55 am 03:55 Clear -12 -24.5 -16 -26.6 83 83 N 3 6 30.49 1032 10 16 0.00 0.00
4:15 am 04:15 Clear -14 -25.6 -18 -27.9 81 81 Calm 30.49 1033 10 16 0.00 0.00
4:35 am 04:35 Clear -15 -26 -19 -28.5 80 80 Calm 30.47 1032 10 16 0.00 0.00
4:55 am 04:55 Clear -15 -26.2 -20 -28.7 79 79 Calm 30.50 1033 10 16 0.00 0.00
5:15 am 05:15 Clear -16 -26.7 -21 -29.4 78 78 W 3 6 30.48 1032 10 16 0.00 0.00
5:35 am 05:35 Clear -16 -26.6 -21 -29.2 79 79 WNW 6 9 30.48 1032 10 16 0.00 0.00
5:55 am 05:55 Clear -16 -26.9 -21 -29.6 78 78 WNW 7 11 30.49 1032 10 16 0.00 0.00
6:15 am 06:15 Clear -16 -26.4 -20 -29.1 78 78 W 7 11 30.48 1032 10 16 0.00 0.00
6:35 am 06:35 Clear -16 -26.7 -21 -29.5 77 77 WNW 6 9 30.48 1032 10 16 0.00 0.00
6:55 am 06:55 Clear -15 -26.2 -20 -28.8 79 79 WNW 8 13 30.48 1032 10 16 0.00 0.00
7:15 am 07:15 Clear -15 -26.3 -20 -29 78 78 W 5 7 30.48 1032 10 16 0.00 0.00
7:35 am 07:35 Clear -15 -26.3 -20 -28.9 79 79 Calm 30.48 1032 10 16 0.00 0.00
7:55 am 07:55 Hazy -17 -27.2 -23 -30.4 74 74 W 3 6 30.50 1033 2 2 0.00 0.00
8:15 am 08:15 Sunny -18 -28 -24 -31.2 74 74 WNW 3 6 30.54 1034 10 16 0.00 0.00
8:35 am 08:35 Sunny -18 -27.8 -23 -30.8 76 76 Calm 30.53 1034 10 16 0.00 0.00
8:55 am 08:55 Sunny -17 -27.2 -23 -30.3 75 75 NW 3 6 30.53 1034 10 16 0.00 0.00
9:15 am 09:15 Partly Cloudy -14 -25.3 -19 -28.1 77 77 NW 3 6 30.51 1033 10 16 0.00 0.00
9:35 am 09:35 Partly Cloudy -12 -24.3 -17 -27.1 78 78 Calm 30.49 1033 10 16 0.00 0.00
9:55 am 09:55 Mostly Cloudy -10 -23.3 -15 -26.2 77 77 Calm 30.48 1032 10 16 0.00 0.00
10:15 am 10:15 Mostly Cloudy -8 -22.2 -13 -25 78 78 Calm 30.47 1032 10 16 0.00 0.00
10:35 am 10:35 Cloudy -6 -21.1 -11 -23.8 79 79 Calm 30.46 1031 10 16 0.00 0.00
10:55 am 10:55 Cloudy -5 -20.4 -9 -22.9 81 81 Calm 30.46 1031 10 16 0.00 0.00
11:15 am 11:15 Cloudy -3 -19.4 -7 -21.8 81 81 Calm 30.46 1031 7 11 0.01 0.25
11:35 am 11:35 Mostly Cloudy with Haze -1 -18.6 -6 -21.3 79 79 Calm 30.44 1031 4 6 0.01 0.25
11:55 am 11:55 Cloudy with Haze 1 -17.5 -4 -20.2 80 80 Calm 30.42 1030 2 2 0.01 0.25
12:15 pm 12:15 Cloudy 1 -17.3 -4 -20.1 79 79 ENE 6 9 30.42 1030 10 16 0.00 0.00
12:35 pm 12:35 Cloudy 1 -17.1 -4 -20 78 78 ENE 7 11 30.41 1030 10 16 0.00 0.00
12:55 pm 12:55 Cloudy 2 -16.7 -3 -19.6 78 78 ENE 6 9 30.41 1030 7 11 0.00 0.00
1:15 pm 13:15 Cloudy 2 -16.7 -4 -19.8 77 77 ENE 7 11 30.41 1030 7 11 0.00 0.00
1:35 pm 13:35 Cloudy with Light Snow 2 -16.6 -3 -19.7 77 77 ENE 7 11 30.40 1030 10 16 0.00 0.00
1:55 pm 13:55 Cloudy with Light Snow 2 -16.4 -3 -19.7 76 76 ENE 7 11 30.40 1030 7 11 0.00 0.00
2:15 pm 14:15 Cloudy with Light Snow 3 -16.3 -4 -20 73 73 ENE 7 11 30.39 1029 7 11 0.00 0.00
2:35 pm 14:35 Cloudy with Light Snow 3 -16.2 -4 -20 73 73 ENE 7 11 30.39 1029 10 16 0.00 0.00
2:55 pm 14:55 Cloudy with Light Snow 3 -16.2 -4 -20 73 73 ENE 6 9 30.39 1029 10 16 0.00 0.00
3:35 pm 15:35 Cloudy with Light Snow 3 -16 -4 -20 72 72 E 6 9 30.39 1029 7 11 0.00 0.00
3:55 pm 15:55 Cloudy with Light Snow 3 -16 -4 -19.8 73 73 ENE 6 9 30.38 1029 7 11 0.00 0.00
4:15 pm 16:15 Cloudy 3 -16 -3 -19.7 73 73 NE 6 9 30.39 1029 10 16 0.00 0.00
4:30 pm 16:30 Cloudy 3 -16.2 -4 -20 73 73 ENE 7 11 30.38 1029 10 16 0.00 0.00
4:55 pm 16:55 Cloudy 3 -16.1 -4 -19.8 73 73 ENE 5 7 30.39 1029 10 16 0.00 0.00
5:15 pm 17:15 Cloudy 3 -16.2 -4 -20 73 73 ENE 5 7 30.38 1029 10 16 0.00 0.00
5:35 pm 17:35 Cloudy 2 -16.4 -4 -19.8 75 75 E 5 7 30.39 1029 10 16 0.00 0.00
5:55 pm 17:55 Cloudy 2 -16.5 -4 -20 75 75 E 3 6 30.40 1030 10 16 0.00 0.00
6:15 pm 18:15 Cloudy 2 -16.5 -4 -20 75 75 E 6 9 30.41 1030 10 16 0.00 0.00
6:35 pm 18:35 Cloudy 2 -16.7 -4 -20 76 76 E 6 9 30.43 1030 10 16 0.00 0.00
6:55 pm 18:55 Cloudy with Light Snow 2 -16.7 -4 -20 76 76 E 6 9 30.43 1030 10 16 0.00 0.00
7:15 pm 19:15 Cloudy with Light Snow 1 -17 -4 -20.2 76 76 E 6 9 30.44 1031 10 16 0.00 0.00
7:35 pm 19:35 Cloudy 1 -17 -5 -20.3 76 76 E 6 9 30.44 1031 10 16 0.00 0.00
7:55 pm 19:55 Cloudy 1 -17.4 -5 -20.7 76 76 E 5 7 30.46 1032 10 16 0.00 0.00
8:15 pm 20:15 Cloudy 1 -17.5 -5 -20.7 76 76 ESE 5 7 30.48 1032 10 16 0.00 0.00
8:35 pm 20:35 Cloudy 1 -17.5 -5 -20.6 77 77 E 5 7 30.48 1032 10 16 0.00 0.00
8:55 pm 20:55 Cloudy 0 -18 -6 -21 78 78 ESE 5 7 30.48 1032 10 16 0.00 0.00
9:15 pm 21:15 Cloudy 0 -17.9 -5 -20.8 78 78 SSE 3 6 30.49 1033 10 16 0.00 0.00
9:35 pm 21:35 Cloudy 0 -18 -5 -20.7 80 80 SE 3 6 30.48 1032 10 16 0.00 0.00
9:55 pm 21:55 Cloudy 0 -18 -5 -20.7 80 80 SE 3 6 30.49 1033 10 16 0.00 0.00
10:15 pm 22:15 Cloudy with Light Snow -1 -18.4 -6 -21 80 80 SE 3 6 30.50 1033 3 5 0.00 0.00
10:35 pm 22:35 Cloudy with Haze -1 -18.5 -5 -20.8 82 82 Calm 30.50 1033 3 4 0.00 0.00
10:55 pm 22:55 Cloudy -3 -19.5 -7 -21.9 81 81 Calm 30.53 1034 10 16 0.00 0.00
11:15 pm 23:15 Cloudy -3 -19.5 -7 -21.8 82 82 Calm 30.54 1034 10 16 0.00 0.00
11:35 pm 23:35 Cloudy -3 -19.6 -8 -22 81 81 Calm 30.55 1035 10 16 0.00 0.00
11:55 pm 23:55 Cloudy -3 -19.6 -8 -22 81 81 Calm 30.53 1034 10 16 0.00 0.00

Powered by AerisWeather